Time,TemperatureF,DewpointF,PressureIn,WindDirection,WindDirectionDegrees,WindSpeedMPH,WindSpeedGustMPH,Humidity,HourlyPrecipIn,Conditions,Clouds,dailyrainin,SoftwareType,DateUTC
2013-01-29 00:00:00,65.8,64.6,30.27,NNW,340,0.0,1.0,96,0.00,,,0.00,WUHU216DAVISVP2,2013-01-29 05:00:00,
2013-01-29 00:02:00,65.9,64.7,30.27,NNW,340,0.0,1.0,96,0.00,,,0.00,WUHU216DAVISVP2,2013-01-29 05:02:00,
2013-01-29 00:03:00,65.9,64.7,30.27,NNW,340,0.0,1.0,96,0.00,,,0.00,WUHU216DAVISVP2,2013-01-29 05:03:00,
2013-01-29 00:08:00,65.9,64.7,30.27,NNW,340,0.0,0.0,96,0.00,,,0.00,WUHU216DAVISVP2,2013-01-29 05:08:00,
2013-01-29 00:13:00,65.9,64.7,30.27,NNW,340,0.0,0.0,96,0.00,,,0.00,WUHU216DAVISVP2,2013-01-29 05:13:00,
2013-01-29 00:18:00,65.8,64.6,30.27,NNW,340,0.0,0.0,96,0.00,,,0.00,WUHU216DAVISVP2,2013-01-29 05:18:00,
2013-01-29 00:23:00,65.8,64.6,30.27,NNW,339,0.0,0.0,96,0.00,,,0.00,WUHU216DAVISVP2,2013-01-29 05:23:00,
2013-01-29 00:28:00,65.8,64.6,30.27,NNW,339,0.0,0.0,96,0.00,,,0.00,WUHU216DAVISVP2,2013-01-29 05:28:00,
2013-01-29 00:33:00,65.8,64.6,30.26,NNW,340,0.0,1.0,96,0.00,,,0.00,WUHU216DAVISVP2,2013-01-29 05:33:00,
2013-01-29 00:38:00,65.8,64.6,30.27,NNW,340,0.0,1.0,96,0.00,,,0.00,WUHU216DAVISVP2,2013-01-29 05:38:00,
2013-01-29 00:43:00,65.8,64.6,30.26,NNW,340,0.0,1.0,96,0.00,,,0.00,WUHU216DAVISVP2,2013-01-29 05:43:00,
2013-01-29 00:48:00,65.7,64.5,30.26,NNW,340,0.0,1.0,96,0.00,,,0.00,WUHU216DAVISVP2,2013-01-29 05:48:00,
2013-01-29 00:53:00,65.7,64.5,30.26,NNW,340,0.0,0.0,96,0.00,,,0.00,WUHU216DAVISVP2,2013-01-29 05:53:00,
2013-01-29 00:58:00,65.6,64.4,30.26,NNW,340,0.0,0.0,96,0.00,,,0.00,WUHU216DAVISVP2,2013-01-29 05:58:00,
2013-01-29 01:03:00,65.5,64.3,30.26,NNW,340,0.0,0.0,96,0.00,,,0.00,WUHU216DAVISVP2,2013-01-29 06:03:00,
2013-01-29 01:08:00,65.3,64.1,30.26,NNW,340,0.0,0.0,96,0.00,,,0.00,WUHU216DAVISVP2,2013-01-29 06:08:00,
2013-01-29 01:13:00,65.2,64.0,30.26,NNW,340,0.0,0.0,96,0.00,,,0.00,WUHU216DAVISVP2,2013-01-29 06:13:00,
2013-01-29 01:18:00,65.0,63.5,30.25,NNW,340,0.0,0.0,95,0.00,,,0.00,WUHU216DAVISVP2,2013-01-29 06:18:00,
2013-01-29 01:23:00,64.8,63.3,30.25,NNW,340,0.0,0.0,95,0.00,,,0.00,WUHU216DAVISVP2,2013-01-29 06:23:00,
2013-01-29 01:28:00,64.6,63.1,30.25,NNW,339,0.0,0.0,95,0.00,,,0.00,WUHU216DAVISVP2,2013-01-29 06:28:00,
2013-01-29 01:33:00,64.4,62.9,30.25,NNW,339,0.0,0.0,95,0.00,,,0.00,WUHU216DAVISVP2,2013-01-29 06:33:00,
2013-01-29 01:38:00,64.3,62.8,30.25,NNW,339,0.0,0.0,95,0.00,,,0.00,WUHU216DAVISVP2,2013-01-29 06:38:00,
2013-01-29 01:43:00,64.0,62.5,30.24,NNW,338,0.0,0.0,95,0.00,,,0.00,WUHU216DAVISVP2,2013-01-29 06:43:00,
2013-01-29 01:48:00,63.9,62.4,30.24,NNW,338,0.0,0.0,95,0.00,,,0.00,WUHU216DAVISVP2,2013-01-29 06:48:00,
2013-01-29 01:53:00,63.7,62.2,30.24,NNW,338,0.0,0.0,95,0.00,,,0.00,WUHU216DAVISVP2,2013-01-29 06:53:00,